FLOCK 4P-9

Last updated on Sat Dec 28 2019 00:02:03 GMT+0000 (Coordinated Universal Time)

1 44807U 19081D 19360.71337043 .00000512 00000-0 27584-4 0 9997 2 44807 97.5200 57.6342 0015064 139.9615 220.2732 15.19185764 4486
UTC large
Height (km)
Speed (km/s)
/
Latitude / Longitude
Inclination (degrees)
Orbital Period (minutes)
Azimuth
Elevation
Range (km)
Doppler Factor

Next 0 passes for location: London (51.5072 / 0.1276)

Sorry there are no passes over London.